Weather History for Weslaco, TX

Change the Weather History Date:

Sunday, November 11, 2012

  Actual Average (KMFE) Record (KMFE)
Temperature  
Mean Temperature 78 °F 71 °F  
Max Temperature 86 °F 81 °F 93 °F (1962)
Min Temperature 71 °F 60 °F 38 °F (1887)
Degree Days  
Heating Degree Days 0 1  
Month to date heating degree days 11  
Since 1 July heating degree days 16  
Cooling Degree Days 14 7  
Month to date cooling degree days 89  
Year to date cooling degree days 4271  
Growing Degree Days 28 (Base 50)    
Moisture  
Dew Point 64 °F    
Average Humidity 63    
Maximum Humidity 78    
Minimum Humidity 43    
Precipitation  
Precipitation 0.00 in 0.03 in 0.34 in (1957)
Month to date precipitation 0.41  
Year to date precipitation 20.53  
Sea Level Pressure  
Sea Level Pressure 29.89 in    
Wind  
Wind Speed 13 mph (SSE)    
Max Wind Speed 26 mph    
Max Gust Speed 33 mph    
Visibility 10 miles    
Events      
T = Trace of Precipitation, MM = Missing Value Source: NWS Daily Summary

Daily Weather History Graph

Daily Weather History Graph

Search for Another Location

Airport:

Trip Planner

Search our weather history database for the weather conditions in past years. The results will help you decide how hot, cold, wet, or windy it might be!

Date:

Astronomy

Nov. 11, 2012 Rise Set
Actual Time 6:47 AM CST 5:43 PM CST
Civil Twilight 6:23 AM CST 6:07 PM CST
Nautical Twilight 5:55 AM CST 6:35 PM CST
Astronomical Twilight 5:28 AM CST 7:03 PM CST
Moon 4:15 AM CST (11/11) 3:59 PM CST (11/11)
Length of Visible Light 11h 44m
Length of Day
10h 55m
Waning Crescent, 7% of the Moon is Illuminated
Nov 11
Waning Crescent
Nov 13
New
Nov 20
First Quarter
Nov 28
Full
Dec 6
Last Quarter

Hourly Weather History & Observations

Time (CST) Temp. Heat Index Dew Point Humidity Pressure Visibility Wind Dir Wind Speed Gust Speed Precip Events Conditions
12:15 AM 73.4 °F - 62.6 °F 69% 29.91 in 10.0 mi SSE 10.4 mph - N/A   Unknown
12:35 AM 73.4 °F - 62.6 °F 69% 29.90 in 10.0 mi SSE 11.5 mph - N/A   Unknown
12:55 AM 73.4 °F - 64.4 °F 73% 29.90 in 10.0 mi SSE 11.5 mph 17.3 mph N/A   Unknown
1:15 AM 73.4 °F - 64.4 °F 73% 29.89 in 10.0 mi SSE 11.5 mph - N/A   Unknown
1:35 AM 73.4 °F - 64.4 °F 73% 29.89 in 10.0 mi SSE 12.7 mph 18.4 mph N/A   Unknown
1:55 AM 73.4 °F - 64.4 °F 73% 29.88 in 10.0 mi SSE 12.7 mph 18.4 mph N/A   Unknown
2:15 AM 73.4 °F - 64.4 °F 73% 29.87 in 10.0 mi SSE 11.5 mph - N/A   Unknown
2:35 AM 71.6 °F - 64.4 °F 78% 29.86 in 10.0 mi SSE 10.4 mph - N/A   Unknown
2:55 AM 71.6 °F - 64.4 °F 78% 29.85 in 10.0 mi SSE 12.7 mph 18.4 mph N/A   Unknown
3:15 AM 73.4 °F - 64.4 °F 73% 29.85 in 10.0 mi SSE 13.8 mph 19.6 mph N/A   Unknown
3:35 AM 73.4 °F - 62.6 °F 69% 29.84 in 10.0 mi South 15.0 mph 19.6 mph N/A   Unknown
3:55 AM 73.4 °F - 62.6 °F 69% 29.84 in 10.0 mi SSE 13.8 mph 19.6 mph N/A   Unknown
4:15 AM 73.4 °F - 62.6 °F 69% 29.84 in 10.0 mi SSE 13.8 mph - N/A   Unknown
4:35 AM 73.4 °F - 62.6 °F 69% 29.84 in 10.0 mi SSE 12.7 mph 20.7 mph N/A   Unknown
4:55 AM 71.6 °F - 62.6 °F 73% 29.84 in 10.0 mi SSE 12.7 mph 17.3 mph N/A   Unknown
5:15 AM 71.6 °F - 62.6 °F 73% 29.83 in 10.0 mi SSE 12.7 mph - N/A   Unknown
5:35 AM 71.6 °F - 62.6 °F 73% 29.84 in 10.0 mi SSE 11.5 mph 18.4 mph N/A   Unknown
5:55 AM 71.6 °F - 62.6 °F 73% 29.84 in 10.0 mi SSE 12.7 mph - N/A   Unknown
6:15 AM 71.6 °F - 62.6 °F 73% 29.84 in 10.0 mi SSE 12.7 mph 18.4 mph N/A   Unknown
6:35 AM 71.6 °F - 62.6 °F 73% 29.85 in 10.0 mi SSE 11.5 mph 16.1 mph N/A   Unknown
6:55 AM 71.6 °F - 62.6 °F 73% 29.86 in 10.0 mi SSE 11.5 mph 16.1 mph N/A   Unknown
7:35 AM 73.4 °F - 64.4 °F 73% 29.87 in 10.0 mi South 13.8 mph 20.7 mph N/A   Unknown
7:55 AM 75.2 °F - 64.4 °F 69% 29.88 in 10.0 mi South 15.0 mph 23.0 mph N/A   Unknown
8:15 AM 75.2 °F - 64.4 °F 69% 29.88 in 10.0 mi South 16.1 mph 23.0 mph N/A   Unknown
8:35 AM 78.8 °F - 62.6 °F 57% 29.89 in 10.0 mi South 17.3 mph 23.0 mph N/A   Unknown
9:35 AM 78.8 °F - 62.6 °F 57% 29.90 in 10.0 mi South 18.4 mph 27.6 mph N/A   Unknown
9:55 AM 80.6 °F 81.8 °F 62.6 °F 54% 29.91 in 10.0 mi South 20.7 mph 25.3 mph N/A   Unknown
10:15 AM 82.4 °F 83.4 °F 62.6 °F 51% 29.91 in 10.0 mi South 24.2 mph 32.2 mph N/A   Unknown
10:35 AM 82.4 °F 83.4 °F 62.6 °F 51% 29.90 in 10.0 mi South 20.7 mph 28.8 mph N/A   Unknown
11:15 AM 84.2 °F 84.4 °F 60.8 °F 45% 29.90 in 10.0 mi South 21.9 mph 29.9 mph N/A   Unknown
11:35 AM 86.0 °F 86.1 °F 60.8 °F 43% 29.88 in 10.0 mi South 23.0 mph 31.1 mph N/A   Unknown
12:15 PM 86.0 °F 86.6 °F 62.6 °F 45% 29.86 in 10.0 mi SSE 25.3 mph 32.2 mph N/A   Unknown
12:35 PM 86.0 °F 87.3 °F 64.4 °F 48% 29.84 in 10.0 mi SSE 21.9 mph 31.1 mph N/A   Unknown
12:55 PM 84.2 °F 85.0 °F 62.6 °F 48% 29.84 in 10.0 mi SSE 24.2 mph 32.2 mph N/A   Unknown
1:15 PM 86.0 °F 86.6 °F 62.6 °F 45% 29.83 in 10.0 mi South 23.0 mph 33.4 mph N/A   Unknown
1:35 PM 86.0 °F 86.6 °F 62.6 °F 45% 29.83 in 10.0 mi SSE 20.7 mph 31.1 mph N/A   Unknown
1:55 PM 86.0 °F 86.6 °F 62.6 °F 45% 29.83 in 10.0 mi South 26.5 mph 32.2 mph N/A   Unknown
2:15 PM 84.2 °F 85.0 °F 62.6 °F 48% 29.83 in 10.0 mi SSE 16.1 mph 31.1 mph N/A   Unknown
2:35 PM 86.0 °F 86.6 °F 62.6 °F 45% 29.83 in 10.0 mi SSE 17.3 mph - N/A   Unknown
2:55 PM 84.2 °F 85.0 °F 62.6 °F 48% 29.83 in 10.0 mi SSE 15.0 mph 25.3 mph N/A   Unknown
3:15 PM 84.2 °F 85.0 °F 62.6 °F 48% 29.83 in 10.0 mi SSE 18.4 mph 24.2 mph N/A   Unknown
3:35 PM 86.0 °F 86.6 °F 62.6 °F 45% 29.83 in 10.0 mi SSE 19.6 mph 28.8 mph N/A   Unknown
3:55 PM 86.0 °F 86.1 °F 60.8 °F 43% 29.83 in 10.0 mi South 19.6 mph 26.5 mph N/A   Unknown
4:15 PM 84.2 °F 85.0 °F 62.6 °F 48% 29.83 in 10.0 mi SSE 18.4 mph 27.6 mph N/A   Unknown
4:35 PM 82.4 °F 83.4 °F 62.6 °F 51% 29.83 in 10.0 mi South 18.4 mph 25.3 mph N/A   Unknown
4:55 PM 82.4 °F 83.9 °F 64.4 °F 54% 29.84 in 10.0 mi SSE 17.3 mph 20.7 mph N/A   Unknown
5:15 PM 80.6 °F 82.3 °F 64.4 °F 58% 29.85 in 10.0 mi SSE 13.8 mph 23.0 mph N/A   Unknown
5:35 PM 80.6 °F 82.3 °F 64.4 °F 58% 29.86 in 10.0 mi SSE 19.6 mph 24.2 mph N/A   Unknown
5:55 PM 80.6 °F 82.3 °F 64.4 °F 58% 29.88 in 10.0 mi SSE 15.0 mph 18.4 mph N/A   Unknown
6:15 PM 78.8 °F - 64.4 °F 61% 29.89 in 10.0 mi SSE 10.4 mph 18.4 mph N/A   Unknown
6:35 PM 78.8 °F - 64.4 °F 61% 29.90 in 10.0 mi SSE 9.2 mph - N/A   Unknown
6:55 PM 78.8 °F - 64.4 °F 61% 29.92 in 10.0 mi SSE 8.1 mph - N/A   Unknown
7:15 PM 77.0 °F - 64.4 °F 65% 29.93 in 10.0 mi SSE 9.2 mph - N/A   Unknown
7:35 PM 77.0 °F - 64.4 °F 65% 29.94 in 10.0 mi SSE 5.8 mph - N/A   Unknown
7:55 PM 77.0 °F - 64.4 °F 65% 29.95 in 10.0 mi SE 5.8 mph - N/A   Unknown
8:15 PM 77.0 °F - 64.4 °F 65% 29.96 in 10.0 mi SE 4.6 mph - N/A   Unknown
8:35 PM 77.0 °F - 64.4 °F 65% 29.97 in 10.0 mi SE 5.8 mph - N/A   Unknown
8:55 PM 77.0 °F - 66.2 °F 69% 29.98 in 10.0 mi SE 3.5 mph - N/A   Unknown
9:15 PM 77.0 °F - 66.2 °F 69% 29.99 in 10.0 mi SE 6.9 mph - N/A   Unknown
9:35 PM 77.0 °F - 66.2 °F 69% 30.00 in 10.0 mi SE 4.6 mph - N/A   Unknown
9:55 PM 75.2 °F - 64.4 °F 69% 30.00 in 10.0 mi ESE 4.6 mph - N/A   Unknown
10:15 PM 73.4 °F - 64.4 °F 73% 30.01 in 10.0 mi East 3.5 mph - N/A   Unknown
10:35 PM 73.4 °F - 64.4 °F 73% 30.02 in 10.0 mi ESE 3.5 mph - N/A   Unknown
10:55 PM 73.4 °F - 64.4 °F 73% 30.04 in 10.0 mi Calm Calm - N/A   Unknown
11:15 PM 73.4 °F - 64.4 °F 73% 30.04 in 10.0 mi Calm Calm - N/A   Unknown
11:35 PM 71.6 °F - 64.4 °F 78% 30.04 in 10.0 mi Calm Calm - N/A   Unknown
11:55 PM 73.4 °F - 64.4 °F 73% 30.04 in 10.0 mi Calm Calm - N/A   Unknown